Regional Weather Roundup
Issued by NWS Mobile, AL

Home | Current Version | Previous Version | Text Only | Print | Product List | Glossary On
Versions: 1 2 3 4 5 6 7 8 9 10 11 12 13 14 15 16 17 18 19 20 21 22 23 24 25 26 27 28 29 30 31 32 33 34 35 36 37 38 39 40 41 42 43 44 45 46 47 48 49 50
000
ASUS44 KMOB 222212
RWRMOB
REGIONAL WEATHER ROUNDUP
NATIONAL WEATHER SERVICE MOBILE AL
500 PM CDT FRI MAY 22 2015

NOTE: "FAIR" INDICATES FEW OR NO CLOUDS BELOW 12,000 FEET WITH NO
      SIGNIFICANT WEATHER AND/OR OBSTRUCTIONS TO VISIBILITY.

  * THESE STATIONS ARE PART OF THE UNIVERSITY OF SOUTH ALABAMA
    MESONET AND ARE NOT UNDER NWS OR FAA QUALITY CONTROL.

ALZ061>064-222300-
COASTAL ALABAMA

CITY           SKY/WX    TMP DP  RH WIND       PRES   REMARKS
MOBILE REG APT MOSUNNY   83  60  45 CALM      30.16R
BROOKLEY FIELD MOSUNNY   82  59  45 NE9       30.16S
USA CAMPUS*      N/A     84  63  48 NE3       30.16
DOG RIVER*     NOT AVBL


CITY           SKY/WX    TMP DP  RH WIND       PRES   REMARKS
MOUNT VERNON*    N/A     79  57  47 MISG      30.15S
SARALAND*      NOT AVBL
BAY MINETTE*   NOT AVBL
LOXLEY*          N/A     84  57  39 N10       30.14R
ROBERTSDALE*     N/A     84  57  39 CALM      30.12F
FAIRHOPE*      NOT AVBL
ELBERTA*         N/A     82  63  51 CALM      30.13S
FOLEY*         NOT AVBL
GRAND BAY*     NOT AVBL
DAUPHIN ISLND* NOT AVBL
BON SCOUR NWR* NOT AVBL
GULF SHORES    SUNNY     78  65  62 SE6       30.13F

$$

ALZ051>060-222300-
INTERIOR SOUTHWEST AND SOUTH CENTRAL ALABAMA

CITY           SKY/WX    TMP DP  RH WIND       PRES   REMARKS
GREENVILLE     SUNNY     79  48  33 N9        30.16F
EVERGREEN      SUNNY     82  53  36 VRB5      30.16S
CASTLEBERRY*   NOT AVBL
ATMORE*          N/A     81  54  39 NW7       30.16S
DIXIE*         NOT AVBL
ANDALUSIA/OPP  SUNNY     85  50  29 N8        30.15S
ANDALUSIA*       N/A     81  52  36 N6        30.15F
FLORALA APT    SUNNY     82  51  34 CALM      30.16S
FLORALA*         N/A     81  50  34 E6        30.11S

$$

FLZ001>006-222300-
WESTERN FLORIDA PANHANDLE

CITY           SKY/WX    TMP DP  RH WIND       PRES   REMARKS
PENSACOLA      SUNNY     84  58  40 VRB3      30.13S
NAS PENSACOLA  MOSUNNY   83  63  50 S7        30.13S
MILTON         MOSUNNY   84  58  40 N6        30.14S
WHTNG S FIELD  MOSUNNY   84  58  40 VRB5      30.14S


CITY           SKY/WX    TMP DP  RH WIND       PRES   REMARKS
WALNUT HILL*   NOT AVBL
JAY*             N/A     81  52  36 VRB8      30.14F
DUKE FIELD     SUNNY     84  55  36 VRB5      30.12F HAZE
CRESTVIEW      SUNNY     85  55  35 VRB5      30.15S
VALPARAISO     MOSUNNY   84  59  42 SW9       30.12S
DESTIN         SUNNY     83  58  42 SW7       30.12S

$$

MSZ076-079-222300-
INTERIOR SOUTHEAST MISSISSIPPI

CITY           SKY/WX    TMP DP  RH WIND       PRES   REMARKS
LEAKESVILLE*     N/A     81  57  44 NE3       30.17S
AGRICOLA*      NOT AVBL

$$

MARINE OBSERVATIONS

STATION/POSITION TIME  TEMP    WIND        PRES    WAVE
                       AIR SEA DIR/SP/G            HT/PER
                 (UTC) (F)     (DEG/KT/KT) (MB)    (FT/S)
PASCAGOULA       2100   78     180/  5/  6 1020.6F
PETIT BOIS ISLND 2100   78     110/  3/  5 1021.2F
GRAND BAY        2000   77     110/  7     1022.0S
KATRINA CUT      2100   79      80/  5     1021.7S
CEDAR POINT      2100   77      50/  5     1021.3S
E DAUPHIN ISLAND 2100   77      10/  5/  5 1020.5F
MIDDLE BAY LIGHT 2100   79     330/ 10     1020.3S
USCG MOBILE BAY  2100   79 78   70/  4/  8 1019.8F
STATE DOCKS      2100   83 79              1020.6F
MEAHER PARK      2100   80     330/  6     1020.0F
WEEKS BAY        2000   84                   N/A
FORT MORGAN      2100   78      10/  5/  6 1020.4F
12 S ORANGE BCH  2150   76 81  130/  2/  2 1019.8F   1/ 4
PENSACOLA BAY    2100   85 83   60/  6/  8 1020.5F
64 S DAUPHIN ISL 2150   76 82  100/ 10/ 12 1020.7F   2/ 5
67 S FORT MORGAN 2130   78      70/ 10     1020.3F

$$

SELECTED LOCATIONS ACROSS THE REGION

CITY           SKY/WX    TMP DP  RH WIND       PRES   REMARKS
NEW ORLEANS    MOSUNNY   82  66  58 N8        30.14S
GULFPORT       PTSUNNY   79  65  62 S6        30.14S
PASCAGOULA AP  CLOUDY    82  64  54 NW3       30.14S
PASCAGOULA*    NOT AVBL
HATTIESBURG    MOSUNNY   81  59  47 CALM      30.17S
LAUREL         MOSUNNY   79  54  41 NE6       30.19S
MERIDIAN       MOSUNNY   77  50  38 VRB3      30.18S
JACKSON        MOSUNNY   77  53  43 E7        30.17F
MONTGOMERY     SUNNY     79  51  37 NE8       30.17F
TROY           SUNNY     82  52  35 VRB7      30.17S
KINSTON*         N/A     82  54  36 E2          N/A
GENEVA*          N/A     82  50  32 VRB6      30.15S
ASHFORD*         N/A     81  52  36 N6        30.15F
DOTHAN         SUNNY     83  49  30 N5        30.18S
PANAMA CITY    SUNNY     85  55  35 W5        30.12S

$$



USA.gov is the U.S. government's official web portal to all federal, state and local government web resources and services.